Powrót do katalogu

COSMOS 1375 DEB

AktywnyLEO
NORAD 16203·DEBRIS·🇷🇺 Russia

Wystrzelony Jun 6, 1982 z Plesetsk Cosmodrome

Loading…

Następne Przeloty (najbliższe 24 godziny)

TLE

ŚwieżeSource: Space-Track

Epoka: Sep 14, 2026, 07:49 UTC

1 16203U 82055E   26257.32571493 -.00000068  00000-0  12811-4 0  9990
2 16203  65.8364  29.2512 0075456 303.6588  77.4051 13.89203300243098

Śledź COSMOS 1375 DEB w czasie rzeczywistym z AllMySat

Download on the App Store